Weather reports worldwide

Advertisment
Bilbao/Aeropuerto, Spain (8025): temperature & dewpoint: 10.09.2019 05:00:00 - 16.09.2019 05:00:00 (CEST)Bilbao/Aeropuerto, Spain (8025): wind speed: 10.09.2019 05:00:00 - 16.09.2019 05:00:00 (CEST)Bilbao/Aeropuerto, Spain (8025): wind direction: 10.09.2019 05:00:00 - 16.09.2019 05:00:00 (CEST)Bilbao/Aeropuerto, Spain (8025): reduced air pressure: 10.09.2019 05:00:00 - 16.09.2019 05:00:00 (CEST)Bilbao/Aeropuerto, Spain (8025): visibility: 10.09.2019 05:00:00 - 16.09.2019 05:00:00 (CEST)
Date & Time tt [°C] td [°C] ff [km/h] ff [kn] dd ppp [hPa] vv [km]
16.09.2019 05:00:00 - - - - - - -
16.09.2019 04:00:00 18,4 17,7 0 0 N 1020,5 -
16.09.2019 03:00:00 18,6 17,8 0 0 N 1021,0 -
16.09.2019 02:00:00 18,8 17,9 8 4 ESE 1020,8 -
16.09.2019 01:00:00 19,0 17,5 5 3 S 1020,7 -
16.09.2019 00:00:00 19,1 17,6 5 3 ESE 1021,1 -
15.09.2019 23:00:00 19,7 17,5 13 7 ESE 1021,4 12
15.09.2019 22:00:00 19,3 17,3 11 6 ESE 1021,2 -
15.09.2019 21:00:00 19,2 17,5 8 4 ESE 1020,6 -
15.09.2019 20:00:00 19,7 17,6 9 5 ESE 1019,9 25
15.09.2019 19:00:00 19,6 17,7 11 6 E 1020,1 -
15.09.2019 18:00:00 20,2 17,4 9 5 E 1020,7 -
15.09.2019 17:00:00 21,5 17,5 13 7 E 1021,5 9
15.09.2019 16:00:00 24,8 18,9 13 7 WSW 1021,4 -
15.09.2019 15:00:00 26,5 18,2 13 7 WNW 1020,8 -
15.09.2019 14:00:00 28,7 17,3 5 3 NW 1020,8 25
15.09.2019 13:00:00 27,1 16,1 2 1 S 1021,6 -
15.09.2019 12:00:00 25,1 16,3 4 2 SSE 1022,1 -
15.09.2019 11:00:00 21,4 17,7 5 3 E 1022,6 20
15.09.2019 10:00:00 19,4 17,3 5 3 ENE 1022,7 -
15.09.2019 09:00:00 18,2 17,0 5 3 SE 1022,2 -
15.09.2019 08:00:00 17,5 16,2 5 3 SE 1022,2 9
15.09.2019 07:00:00 17,0 15,5 8 4 ESE 1021,9 -
15.09.2019 06:00:00 17,5 15,7 5 3 ENE 1021,8 -
15.09.2019 05:00:00 17,1 15,6 8 4 ENE 1022,2 15
15.09.2019 04:00:00 17,0 15,5 5 3 E 1022,5 -
15.09.2019 03:00:00 17,2 15,5 8 4 ENE 1022,9 -
15.09.2019 02:00:00 18,1 16,1 8 4 E 1023,1 -
15.09.2019 01:00:00 18,6 16,1 2 1 SSW 1023,4 -
15.09.2019 00:00:00 19,2 16,1 5 3 ESE 1023,2 -
14.09.2019 23:00:00 20,1 16,1 8 4 ENE 1023,3 15
14.09.2019 22:00:00 20,9 15,9 0 0 N 1023,0 -
14.09.2019 21:00:00 23,1 16,9 0 0 N 1023,2 -
14.09.2019 20:00:00 25,4 14,6 13 7 E 1022,5 35
14.09.2019 19:00:00 26,7 14,8 13 7 ENE 1022,4 -
14.09.2019 18:00:00 28,1 15,3 9 5 E 1022,2 -
14.09.2019 17:00:00 29,3 14,5 22 12 E 1022,0 35
14.09.2019 16:00:00 29,8 14,9 21 11 ENE 1022,4 -
14.09.2019 15:00:00 30,0 15,9 8 4 ESE 1023,0 -
14.09.2019 14:00:00 29,0 17,0 8 4 ESE 1023,7 22
14.09.2019 13:00:00 27,9 15,6 11 6 ESE 1024,5 -
14.09.2019 12:00:00 26,1 16,2 8 4 E 1025,1 -
14.09.2019 11:00:00 23,9 16,7 8 4 E 1025,6 20
14.09.2019 10:00:00 21,1 17,4 5 3 E 1025,8 -
14.09.2019 09:00:00 18,3 16,8 11 6 E 1025,8 -
14.09.2019 08:00:00 17,2 16,2 9 5 ENE 1025,2 17
14.09.2019 07:00:00 17,8 16,6 2 1 ENE 1025,3 -
14.09.2019 06:00:00 17,6 16,5 9 5 ESE 1025,3 -
14.09.2019 05:00:00 17,1 16,1 5 3 E 1025,8 15
14.09.2019 04:00:00 17,0 16,2 8 4 E 1025,9 -
14.09.2019 03:00:00 16,9 16,1 5 3 E 1026,4 -
14.09.2019 02:00:00 16,6 15,8 8 4 ESE 1027,3 -
14.09.2019 01:00:00 17,2 16,4 4 2 ENE 1027,4 -
14.09.2019 00:00:00 17,5 16,4 5 3 E 1027,8 -
13.09.2019 23:00:00 18,3 17,0 0 0 N 1027,7 10
13.09.2019 22:00:00 19,3 17,8 0 0 N 1027,4 -
13.09.2019 21:00:00 19,7 17,8 5 3 NW 1027,3 -
13.09.2019 20:00:00 20,7 18,2 11 6 W 1027,3 25
13.09.2019 19:00:00 21,9 17,9 13 7 W 1027,1 -
13.09.2019 18:00:00 23,2 17,2 13 7 WNW 1027,1 -
13.09.2019 17:00:00 23,1 17,8 15 8 WNW 1027,4 30
13.09.2019 16:00:00 24,4 17,9 16 9 W 1027,7 -
13.09.2019 15:00:00 24,3 16,9 16 9 NW 1027,9 -
13.09.2019 14:00:00 - - - - - - -
13.09.2019 13:00:00 23,1 16,5 5 3 W 1029,0 -
13.09.2019 12:00:00 21,2 16,1 4 2 NNW 1029,9 -
13.09.2019 11:00:00 19,0 14,9 4 2 SE 1029,7 30
13.09.2019 10:00:00 16,5 14,0 8 4 E 1030,1 -
13.09.2019 09:00:00 13,8 12,5 8 4 ENE 1030,3 -
13.09.2019 08:00:00 12,7 11,9 9 5 E 1030,5 40
13.09.2019 07:00:00 12,3 11,5 5 3 E 1030,7 -
13.09.2019 06:00:00 12,2 11,4 5 3 E 1030,0 -
13.09.2019 05:00:00 12,4 11,6 5 3 E 1030,5 15
13.09.2019 04:00:00 12,7 11,8 4 2 ESE 1030,8 -
13.09.2019 03:00:00 13,0 12,1 5 3 E 1030,8 -
13.09.2019 02:00:00 13,4 12,2 5 3 E 1030,7 -
13.09.2019 01:00:00 13,9 12,3 8 4 E 1031,0 -
13.09.2019 00:00:00 14,7 12,9 8 4 ESE 1031,3 -
12.09.2019 23:00:00 15,7 13,5 0 0 N 1031,1 20
12.09.2019 22:00:00 17,1 13,7 0 0 N 1030,9 -
12.09.2019 21:00:00 19,0 13,7 8 4 NNE 1030,6 -
12.09.2019 20:00:00 21,1 13,8 9 5 NNE 1030,2 30
12.09.2019 19:00:00 22,5 13,1 9 5 NE 1029,9 -
12.09.2019 18:00:00 23,1 13,4 13 7 NNE 1029,6 -
12.09.2019 17:00:00 23,2 13,0 15 8 NNE 1029,6 30
12.09.2019 16:00:00 23,3 14,0 18 10 NNE 1030,2 -
12.09.2019 15:00:00 23,6 14,1 15 8 NE 1030,6 -
12.09.2019 14:00:00 23,4 14,1 11 6 ENE 1031,1 25
12.09.2019 13:00:00 21,8 14,3 11 6 NNE 1031,7 -
12.09.2019 12:00:00 21,4 14,7 9 5 ESE 1032,1 -
12.09.2019 11:00:00 19,6 15,2 4 2 ENE 1032,0 20
12.09.2019 10:00:00 17,2 14,5 5 3 ESE 1031,9 -
12.09.2019 09:00:00 14,7 13,6 5 3 ESE 1031,7 -
12.09.2019 08:00:00 12,8 12,2 5 3 E 1031,4 15
12.09.2019 07:00:00 12,7 12,1 8 4 ESE 1030,9 -
12.09.2019 06:00:00 13,1 12,5 8 4 ENE 1031,0 -
12.09.2019 05:00:00 14,0 13,2 5 3 ENE 1030,9 15
12.09.2019 04:00:00 14,2 13,6 5 3 E 1030,8 -
12.09.2019 03:00:00 13,6 12,9 5 3 NE 1031,1 -
12.09.2019 02:00:00 13,8 13,0 5 3 E 1031,2 -
12.09.2019 01:00:00 14,4 13,4 4 2 E 1031,3 -
12.09.2019 00:00:00 15,1 13,6 0 0 N 1031,3 -
11.09.2019 23:00:00 16,1 13,9 5 3 E 1031,1 15
11.09.2019 22:00:00 17,4 14,5 4 2 N 1030,4 -
11.09.2019 21:00:00 17,9 14,2 5 3 W 1029,7 -
11.09.2019 20:00:00 19,4 14,5 9 5 NW 1029,1 40
11.09.2019 19:00:00 20,4 14,3 15 8 N 1028,9 -
11.09.2019 18:00:00 21,5 13,4 22 12 N 1028,9 -
11.09.2019 17:00:00 20,7 14,6 26 14 NNW 1028,7 40
11.09.2019 16:00:00 21,5 14,8 18 10 NNW 1028,4 -
11.09.2019 15:00:00 20,8 14,2 16 9 NNW 1028,5 -
11.09.2019 14:00:00 21,3 12,6 15 8 NNW 1028,6 40
11.09.2019 13:00:00 21,6 14,6 22 12 NNW 1028,5 -
11.09.2019 12:00:00 19,9 14,7 18 10 NNW 1028,3 -
11.09.2019 11:00:00 20,1 15,4 22 12 NW 1027,5 30
11.09.2019 10:00:00 19,1 15,0 15 8 N 1027,5 -
11.09.2019 09:00:00 18,6 14,4 9 5 NNW 1026,9 -
11.09.2019 08:00:00 18,0 14,5 9 5 NW 1026,2 20
11.09.2019 07:00:00 18,1 14,2 11 6 NW 1025,3 -
11.09.2019 06:00:00 17,9 14,1 13 7 NW 1024,8 -
11.09.2019 05:00:00 18,1 13,7 9 5 NNW 1024,7 15
11.09.2019 04:00:00 18,2 13,9 13 7 NNW 1024,5 -
11.09.2019 03:00:00 18,1 13,8 15 8 NW 1024,3 -
11.09.2019 02:00:00 18,0 13,9 15 8 NNW 1024,2 -
11.09.2019 01:00:00 17,1 13,8 11 6 NW 1023,9 -
11.09.2019 00:00:00 17,2 12,9 11 6 NW 1023,7 -
10.09.2019 23:00:00 15,6 12,9 5 3 WSW 1023,7 15
10.09.2019 22:00:00 16,5 12,5 9 5 WNW 1023,0 -
10.09.2019 21:00:00 17,4 12,7 15 8 N 1022,1 -
10.09.2019 20:00:00 17,7 13,2 18 10 N 1020,9 20
10.09.2019 19:00:00 17,1 14,0 15 8 NNW 1020,3 -
10.09.2019 18:00:00 18,0 12,2 26 14 N 1019,5 -
10.09.2019 17:00:00 18,2 13,5 16 9 NNW 1018,8 18
10.09.2019 16:00:00 15,5 14,1 22 12 N 1018,4 -
10.09.2019 15:00:00 18,7 12,8 24 13 NNW 1017,7 -
10.09.2019 14:00:00 16,8 13,7 16 9 NW 1017,3 10
10.09.2019 13:00:00 17,2 13,8 35 19 WNW 1017,0 -
10.09.2019 12:00:00 14,9 13,5 8 4 NNE 1016,6 -
10.09.2019 11:00:00 14,0 12,6 22 12 W 1016,4 1,5
10.09.2019 10:00:00 14,3 11,4 15 8 W 1016,0 -
10.09.2019 09:00:00 13,8 12,0 18 10 W 1016,4 -
10.09.2019 08:00:00 13,0 11,6 8 4 WSW 1015,8 8
10.09.2019 07:00:00 12,7 11,3 8 4 ESE 1016,0 -
10.09.2019 06:00:00 13,7 11,2 8 4 WSW 1016,0 -
10.09.2019 05:00:00 14,3 10,8 8 4 W 1016,4 12

tt = temperature
td = dewpoint
ff = wind speed
dd = wind direction
ppp = reduced air pressure
vv = visibility

Next stations